KE9ADS Weather Reports


time (UTC)temp
F
wind
direction
speed
knots
gust
knots
rain 1hr
in
rain 24hr
in
rain mn
in
humidity
%
barometer
mb
20260906065536 72 55 0.0 0.0 0.00 0.00 0.00 91 1020.1
20260906064534 72 157 0.0 0.0 0.00 0.00 0.00 91 1020.3
20260906063530 72 300 0.0 0.0 0.00 0.00 0.00 91 1020.2
20260906062527 73 151 0.0 0.0 0.00 0.00 0.00 91 1020.1
20260906061523 73 75 0.0 0.0 0.00 0.00 0.00 91 1020.4
20260906060519 73 271 0.0 0.0 0.00 0.00 0.00 90 1020.3
20260906055517 73 182 0.0 0.9 0.00 0.00 0.00 90 1019.9
20260906054512 73 149 0.0 0.0 0.00 0.00 0.00 90 1020.1
20260906053510 73 121 0.0 1.7 0.00 0.00 0.00 89 1020.1
20260906052506 74 119 0.0 0.9 0.00 0.00 0.00 89 1020.1
20260906051504 74 114 0.0 0.0 0.00 0.00 0.00 89 1020.2
20260906050459 74 145 0.0 0.0 0.00 0.00 0.00 89 1019.9
20260906045458 74 355 0.0 0.0 0.00 0.00 0.00 89 1019.9
20260906044455 74 226 0.0 1.7 0.00 0.00 0.00 89 1019.8
20260906043452 74 60 0.0 2.6 0.00 0.00 0.00 88 1019.6
20260906042447 74 196 0.0 0.0 0.00 0.00 0.00 89 1019.5
20260906041444 74 95 0.0 0.0 0.00 0.00 0.00 89 1019.3
20260906040444 74 94 0.0 0.0 0.00 0.00 0.00 89 1019.2
20260906035441 75 87 0.0 0.0 0.00 0.00 0.00 89 1018.9
20260906034436 75 74 0.0 0.0 0.00 0.00 0.00 88 1018.9
20260906033432 75 50 0.0 0.0 0.00 0.00 0.00 88 1018.8
20260906032430 75 190 0.0 0.0 0.00 0.00 0.00 88 1018.8
20260906031425 74 171 0.0 0.0 0.00 0.00 0.00 88 1018.8
20260906030421 74 164 0.0 0.0 0.00 0.00 0.00 88 1018.7
20260906025416 74 122 0.0 0.0 0.00 0.00 0.00 88 1018.6
20260906024414 75 127 0.0 0.0 0.00 0.00 0.00 88 1018.6
20260906023412 75 130 0.0 0.0 0.00 0.00 0.00 88 1018.6
20260906022413 75 144 0.0 0.0 0.00 0.00 0.00 87 1018.5
20260906021408 75 139 0.0 0.0 0.00 0.00 0.00 86 1018.3
20260906020409 75 110 0.0 0.0 0.00 0.00 0.00 86 1018.3
20260906015408 76 144 0.0 0.0 0.00 0.00 0.00 86 1018.2
20260906014408 76 173 0.0 0.0 0.00 0.00 0.00 85 1017.9
20260906013406 76 97 0.0 0.0 0.00 0.00 0.00 85 1017.9
20260906012402 77 346 0.0 0.0 0.00 0.00 0.00 85 1017.8
20260906011402 77 175 0.0 1.7 0.00 0.00 0.00 84 1018.0
20260906010359 78 312 0.0 0.9 0.00 0.00 0.00 83 1017.9
20260906005359 78 120 0.0 0.0 0.00 0.00 0.00 83 1017.9
20260906004359 79 1 0.0 0.0 0.00 0.00 0.00 83 1017.9
20260906003355 79 357 0.0 0.0 0.00 0.00 0.00 82 1017.8
20260906002355 80 179 0.0 0.9 0.00 0.00 0.00 81 1017.9
20260906001353 80 343 0.0 0.9 0.00 0.00 0.00 81 1017.7
20260906000355 81 305 0.0 0.0 0.00 0.00 0.00 80 1017.6
20260905235349 82 335 0.9 1.7 0.00 0.00 0.00 80 1017.4
20260905234345 82 168 0.0 0.9 0.00 0.00 0.00 80 1017.6
20260905233341 83 121 0.9 3.5 0.00 0.00 0.00 78 1017.5
20260905232337 84 177 0.0 1.7 0.00 0.00 0.00 77 1017.4
20260905231332 85 336 0.9 1.7 0.00 0.00 0.00 76 1017.3
20260905230332 86 356 0.9 5.2 0.00 0.00 0.00 74 1017.4
20260905225327 87 105 0.0 1.7 0.00 0.00 0.00 73 1017.3
20260905224323 87 101 0.0 2.6 0.00 0.00 0.00 72 1017.2
20260905223322 87 143 0.0 0.0 0.00 0.00 0.00 73 1017.2
20260905222321 87 288 0.9 2.6 0.00 0.00 0.00 73 1017.0
20260905221320 88 322 1.7 2.6 0.00 0.00 0.00 72 1016.9
20260905220317 89 262 0.0 1.7 0.00 0.00 0.00 71 1016.9
20260905215312 89 122 0.0 2.6 0.00 0.00 0.00 71 1016.9
20260905214309 89 316 0.9 3.5 0.00 0.00 0.00 70 1016.7
20260905213306 89 348 0.9 1.7 0.00 0.00 0.00 71 1016.6
20260905212306 90 195 0.9 3.5 0.00 0.00 0.00 69 1016.7
20260905211301 91 164 0.0 1.7 0.00 0.00 0.00 66 1016.5
20260905210258 91 168 0.0 1.7 0.00 0.00 0.00 67 1016.4
20260905205257 91 254 0.0 0.9 0.00 0.00 0.00 64 1016.6
20260905204253 91 22 0.0 3.5 0.00 0.00 0.00 66 1016.9
20260905203253 91 167 0.0 3.5 0.00 0.00 0.00 66 1016.9
20260905202249 92 149 0.0 0.0 0.00 0.00 0.00 64 1017.0
20260905201246 91 168 0.0 0.0 0.00 0.00 0.00 67 1017.0
20260905200243 92 72 0.9 3.5 0.00 0.00 0.00 65 1016.9
20260905195241 91 156 0.0 1.7 0.00 0.00 0.00 65 1016.9
20260905194236 93 207 0.0 0.0 0.00 0.00 0.00 62 1016.9
20260905193231 90 184 0.0 0.0 0.00 0.00 0.00 68 1017.2
20260905192229 93 315 0.0 0.9 0.00 0.00 0.00 65 1017.2
20260905191226 91 108 0.0 0.0 0.00 0.00 0.00 67 1017.3
20260905190224 92 127 0.0 0.0 0.00 0.00 0.00 66 1017.6
20260905185224 91 160 0.0 0.9 0.00 0.00 0.00 68 1017.4
20260905184224 92 323 0.0 1.7 0.00 0.00 0.00 64 1017.4
20260905183219 92 305 0.0 0.9 0.00 0.00 0.00 65 1017.4
20260905182218 91 121 0.0 0.0 0.00 0.00 0.00 65 1017.5
20260905181218 93 328 0.0 1.7 0.00 0.00 0.00 65 1017.5
20260905180214 93 309 0.0 0.0 0.00 0.00 0.00 64 1017.6
20260905175215 92 217 0.0 0.0 0.00 0.00 0.00 64 1017.8
20260905174212 93 156 0.0 1.7 0.00 0.00 0.00 64 1017.7
20260905173209 92 207 0.0 0.0 0.00 0.00 0.00 64 1017.7
20260905172209 92 130 0.0 0.9 0.00 0.00 0.00 64 1017.7
20260905171206 92 105 0.0 0.0 0.00 0.00 0.00 65 1018.0
20260905170203 92 328 0.0 0.9 0.00 0.00 0.00 66 1018.0
20260905165158 90 166 0.0 0.9 0.00 0.00 0.00 68 1018.1
20260905164159 90 305 0.0 1.7 0.00 0.00 0.00 69 1018.1
20260905163157 89 167 0.0 1.7 0.00 0.00 0.00 70 1018.1
20260905162152 90 67 0.0 1.7 0.00 0.00 0.00 69 1018.0
20260905161151 90 104 0.9 1.7 0.00 0.00 0.00 68 1017.9
20260905160149 89 338 0.0 2.6 0.00 0.00 0.00 69 1017.9
20260905155149 90 57 0.0 1.7 0.00 0.00 0.00 68 1018.1
20260905154145 89 147 0.0 0.9 0.00 0.00 0.00 69 1017.9
20260905153142 90 144 0.0 0.0 0.00 0.00 0.00 69 1018.0
20260905152137 89 319 0.0 0.9 0.00 0.00 0.00 70 1017.9
20260905151134 88 91 0.0 0.9 0.00 0.00 0.00 71 1017.9
20260905150133 87 332 0.0 0.9 0.00 0.00 0.00 73 1017.7
20260905145131 87 119 0.0 2.6 0.00 0.00 0.00 74 1017.7
20260905144125 86 134 0.0 0.0 0.00 0.00 0.00 78 1017.5
20260905143125 87 137 0.0 0.0 0.00 0.00 0.00 75 1017.5
20260905142124 86 109 0.0 0.0 0.00 0.00 0.00 77 1017.2
20260905141121 85 88 0.0 0.0 0.00 0.00 0.00 78 1017.3
20260905140121 84 132 0.0 0.0 0.00 0.00 0.00 82 1017.2
20260905135117 84 14 0.0 1.7 0.00 0.00 0.00 82 1017.2
20260905134116 83 104 0.0 0.0 0.00 0.00 0.00 83 1017.0
20260905133112 82 124 0.0 0.0 0.00 0.00 0.00 83 1016.9
20260905132112 81 159 0.0 0.0 0.00 0.00 0.00 86 1017.0
20260905131109 80 151 0.0 0.0 0.00 0.00 0.00 89 1017.0
20260905130109 78 171 0.0 0.0 0.00 0.00 0.00 93 1017.2
20260905125104 77 166 0.0 0.0 0.00 0.00 0.00 94 1017.1
20260905124102 76 172 0.0 0.0 0.00 0.00 0.00 95 1017.0
20260905123100 76 162 0.0 0.0 0.00 0.00 0.00 95 1016.6
20260905122100 75 162 0.0 0.0 0.00 0.00 0.00 95 1017.0
20260905121056 75 162 0.0 0.0 0.00 0.00 0.00 95 1016.4
20260905120057 75 162 0.0 0.0 0.00 0.00 0.00 95 1016.1
20260905115056 75 161 0.0 0.0 0.00 0.00 0.00 95 1016.0
20260905114055 75 161 0.0 0.0 0.00 0.00 0.00 95 1016.0
20260905113051 75 161 0.0 0.0 0.00 0.00 0.00 95 1016.0
20260905112048 75 159 0.0 0.0 0.00 0.00 0.00 94 1015.8
20260905111048 75 178 0.0 0.0 0.00 0.00 0.00 94 1015.7
20260905110042 75 178 0.0 0.0 0.00 0.00 0.00 94 1015.9
20260905105041 75 178 0.0 0.0 0.00 0.00 0.00 93 1015.6
20260905104037 76 178 0.0 0.0 0.00 0.00 0.00 93 1015.8
20260905103034 76 179 0.0 0.0 0.00 0.00 0.00 93 1015.9
20260905102032 76 179 0.0 0.0 0.00 0.00 0.00 93 1015.9
20260905101029 76 172 0.0 0.0 0.00 0.00 0.00 92 1015.9
20260905100025 77 166 0.0 0.0 0.00 0.00 0.00 91 1015.8
20260905095021 77 166 0.0 0.0 0.00 0.00 0.00 91 1015.9
20260905094021 77 171 0.0 0.0 0.00 0.00 0.00 90 1015.7
20260905093018 77 243 0.9 1.7 0.00 0.00 0.00 91 1015.7
20260905092014 76 225 0.0 0.0 0.00 0.00 0.00 93 1015.9
20260905091013 76 204 0.0 0.0 0.00 0.00 0.00 93 1016.0
20260905090008 76 185 0.0 0.0 0.00 0.00 0.00 93 1016.0
20260905085008 76 185 0.0 0.0 0.00 0.00 0.00 92 1015.9
20260905084009 77 186 0.0 0.0 0.00 0.00 0.00 92 1016.1
20260905083006 77 186 0.0 0.0 0.00 0.00 0.00 91 1016.1
20260905082003 77 186 0.0 0.0 0.00 0.00 0.00 90 1016.1
20260905081003 78 187 0.0 0.0 0.00 0.00 0.00 90 1016.2
20260905080002 78 224 0.0 0.0 0.00 0.00 0.00 90 1016.2
20260905075002 78 204 0.0 0.0 0.00 0.00 0.00 91 1016.1
20260905073959 78 200 0.0 0.0 0.00 0.00 0.00 91 1016.1
20260905072955 78 192 0.0 0.0 0.00 0.00 0.00 91 1016.2
20260905071951 77 181 0.0 0.0 0.00 0.00 0.00 92 1016.2
20260905070947 77 149 0.0 0.0 0.00 0.00 0.00 92 1016.2